Regional Weather Roundup
Issued by NWS

Home | Current Version | Previous Version | Graphics & Text | Print | Product List | Glossary Off
Versions: 1 2 3 4 5 6 7 8 9 10 11 12 13 14 15 16 17 18 19 20 21 22 23 24 25 26 27 28 29 30 31 32 33 34 35 36 37 38 39 40 41 42 43 44 45 46 47 48 49 50

000
ASUS45 KABQ 240110
RWRNM
WEATHER ROUNDUP FOR NEW MEXICO
NATIONAL WEATHER SERVICE ALBUQUERQUE NM
700 PM MDT TUE SEP 23 2014

NOTE: "FAIR" MEANS FEW OR NO CLOUDS BELOW 12,000 FEET AGL WITH NO
       SIGNIFICANT WEATHER OR OBSTRUCTIONS TO VISION.

      THIS PRODUCT IS RELEASED AS TWO VERSIONS.  ONE VERSION NEAR
      THE TOP OF THE HOUR CONTAINING PRELIMINARY DATA FROM ALBUQUERQUE
      AND OTHER STATIONS.  A FINAL VERSION WITH ADDITIONAL DATA IS
      ISSUED ABOUT 10 MINUTES AFTER THE HOUR.

NMZ501-503-504-510>518-240200-
NORTHWEST PLATEAU/NORTHCENTRAL MOUNTAINS

CITY           SKY/WX    TMP DP  RH WIND       PRES   REMARKS
FARMINGTON     CLEAR     78  31  17 W10       30.15F
LOS ALAMOS     MOCLDY    71  45  39 CALM      30.27R
SANTA FE       CLOUDY    76  46  34 VRB3      30.19R
TAOS           CLEAR     70  34  26 W10       30.25S
ANGEL FIRE     FAIR      61  38  42 CALM      30.35R

$$
NMZ402-403-502-505>509-240200-
WESTCENTRAL MOUNTAINS/SOUTHWEST MOUNTAINS

CITY           SKY/WX    TMP DP  RH WIND       PRES   REMARKS
GALLUP         PTCLDY    75  41  29 SW8       30.22S
GRANTS         MOCLDY    73  36  25 NW3       30.24R
SILVER CITY    MOCLDY    75  57  53 SE3       30.20R

$$
NMZ407-409-411-412-240200-
SOUTHERN DESERTS

CITY           SKY/WX    TMP DP  RH WIND       PRES   REMARKS
LORDSBURG      FAIR      79  59  50 MISG      30.08S
DEMING         PTCLDY    79  61  53 SE7       30.09S
LAS CRUCES     PTCLDY    77  62  59 SE6       30.12S
HOLLOMAN AFB   PTCLDY    78  62  59 S5        30.09R
ALAMOGORDO     CLEAR     75  64  69 S5        30.11R
T OR C         PTCLDY    76  63  64 SW5       30.12F

$$
NMZ519>523-240200-
CENTRAL VALLEYS/CENTRAL HIGHLANDS

CITY           SKY/WX    TMP DP  RH WIND       PRES   REMARKS
ALBUQUERQUE    PTCLDY    78  53  41 S7        30.14S
DOUBLE EAGLE   PTCLDY    75  50  41 SW6       30.18S
MORIARTY ARPT  FAIR      71  46  39 W7        30.21R
CLINES CORNERS PTCLDY    71  42  35 NW10      30.24R
BELEN          FAIR      75  56  51 S6        30.14S
SOCORRO        FAIR      74  62  66 SE6       30.13S

$$
NMZ524>526-539-540-240200-
SOUTHCENTRAL MOUNTAINS

CITY           SKY/WX    TMP DP  RH WIND       PRES   REMARKS
RUIDOSO        NOT AVBL

$$
NMZ527>531-240200-
NORTHEAST HIGHLANDS/NORTHEAST PLAINS

CITY           SKY/WX    TMP DP  RH WIND       PRES   REMARKS
LAS VEGAS      MOCLDY    65  55  70 SE8       30.23R
RATON          MOCLDY    66  54  65 N7        30.17R
CLAYTON        PTCLDY    74  55  51 S10       30.08R

$$
NMZ532>537-240200-
EASTCENTRAL PLAINS

CITY           SKY/WX    TMP DP  RH WIND       PRES   REMARKS
TUCUMCARI      CLEAR     75  57  53 S8        30.05S
CANNON AFB     PTCLDY    72  57  60 S13       30.13R
CLOVIS AIRPORT   N/A     70  55  60 S12       30.14S

$$
NMZ028-029-538-240200-
SOUTHEAST PLAINS

CITY           SKY/WX    TMP DP  RH WIND       PRES   REMARKS
ROSWELL        CLEAR     74  64  71 S6        30.09S
CARLSBAD       MOCLDY    74  71  91 SE8       30.07S
HOBBS          MOCLDY    73  63  68 S7        30.12R


$$



USA.gov is the U.S. government's official web portal to all federal, state and local government web resources and services.